Terminal Aerodrome Forecast
Issued by NWS Charleston, WV

Current Version | Previous Version | Text Only | Print | Product List | Glossary Off
Versions: 1 2 3 4 5 6 7 8 9 10 11 12 13 14 15 16 17 18 19 20 21 22 23 24

000
FTUS41 KRLX 041313 AAA
TAFEKN
TAF AMD
KEKN 041313Z 0413/0512 00000KT 6SM SHRA BR BKN015 OVC025
     FM041400 28004KT P6SM BKN015
     FM041800 30004KT P6SM BKN025
     FM050000 00000KT P6SM SCT030
     FM050200 00000KT 3SM BR SCT035
     FM050700 00000KT 1/2SM FG VV001=

USA.gov is the U.S. government's official web portal to all federal, state and local government web resources and services.